Location: ???????
(55.4362°N, 38.1183°E)
Time: 03:43:31
(UTC+00:00)

Cosmos 1953 Rocket - Pass Details

Date: 17 June 2021
Orbit: 605 x 634 km, 82.5° (Epoch: 26 July)

Event Time Altitude Azimuth Distance (km) Brightness Sun altitude
Exits shadow 22:58:34 12° 202° (SSW) 1,860 5.3 -8.9°
Maximum altitude 23:02:37 66° 284° (WNW) 681 3.7 -8.6°
Drops below altitude 10° 23:07:03 10° 8° (N) 2,005 7.7 -8.4°
Sets 23:09:19 0° 11° (N) 2,922 9.0 -8.3°
